Change the Weather History Date:

Sunday, May 12, 2013

  Actual Average Record
Temperature  
Mean Temperature 41 °F -  
Max Temperature 50 °F 66 °F 84 °F (2011)
Min Temperature 30 °F 44 °F 30 °F (2013)
Degree Days  
Heating Degree Days 24    
Moisture  
Dew Point 28 °F    
Average Humidity 63    
Maximum Humidity 89    
Minimum Humidity 43    
Precipitation  
Precipitation 0.00 in - - ()
Sea Level Pressure  
Sea Level Pressure 29.98 in    
Wind  
Wind Speed 11 mph (WNW)    
Max Wind Speed 21 mph    
Max Gust Speed 32 mph    
Visibility 10 miles    
Events      
Averages and records for this station are not official NWS values.
T = Trace of Precipitation, MM = Missing Value Source: NWS Daily Summary

Daily Weather History Graph

Daily Weather History Graph

Search for Another Location

Airport or City:

Trip Planner

Search our weather history database for the weather conditions in past years. The results will help you decide how hot, cold, wet, or windy it might be!

Date:

Astronomy

May. 12, 2013 Rise Set
Actual Time 6:16 AM EDT 8:46 PM EDT
Civil Twilight 5:45 AM EDT 9:18 PM EDT
Nautical Twilight 5:05 AM EDT 9:58 PM EDT
Astronomical Twilight 4:21 AM EDT 10:42 PM EDT
Moon 8:10 AM EDT (5/12) 11:13 PM EDT (5/12)
Length of Visible Light 15h 33m
Length of Day
14h 29m
Waxing Crescent, 6% of the Moon is Illuminated
May 12
Waxing Crescent
May 18
First Quarter
May 25
Full
May 31
Last Quarter
Jun 8
New

Hourly Weather History & Observations

Time (EDT) Temp. Windchill Dew Point Humidity Pressure Visibility Wind Dir Wind Speed Gust Speed Precip Events Conditions
12:53 AM 34.0 °F 28.8 °F 30.9 °F 89% 29.93 in 10.0 mi WSW 5.8 mph - N/A   Clear
1:53 AM 34.0 °F 28.0 °F 30.0 °F 85% 29.92 in 10.0 mi WSW 6.9 mph - N/A   Clear
2:53 AM 34.0 °F 28.0 °F 30.0 °F 85% 29.91 in 10.0 mi WSW 6.9 mph - N/A   Clear
3:53 AM 34.0 °F 27.2 °F 30.0 °F 85% 29.90 in 10.0 mi West 8.1 mph - N/A   Clear
4:53 AM 34.0 °F 27.2 °F 30.0 °F 85% 29.90 in 10.0 mi WSW 8.1 mph - N/A   Clear
5:53 AM 36.0 °F 28.5 °F 30.9 °F 82% 29.90 in 10.0 mi West 10.4 mph - N/A   Partly Cloudy
6:07 AM 37.4 °F 30.3 °F 32.0 °F 81% 29.89 in 10.0 mi West 10.4 mph - N/A   Mostly Cloudy
6:49 AM 37.4 °F 29.3 °F 30.2 °F 75% 29.90 in 10.0 mi WNW 12.7 mph - N/A   Overcast
6:53 AM 37.9 °F 29.6 °F 30.9 °F 76% 29.91 in 10.0 mi West 13.8 mph - N/A   Overcast
7:53 AM 39.0 °F 29.0 °F 28.0 °F 65% 29.92 in 10.0 mi WNW 20.7 mph 31.1 mph N/A   Mostly Cloudy
8:53 AM 39.9 °F 30.2 °F 27.0 °F 60% 29.94 in 10.0 mi WNW 20.7 mph 31.1 mph N/A   Overcast
9:53 AM 42.1 °F 33.9 °F 27.0 °F 55% 29.96 in 10.0 mi NW 17.3 mph 32.2 mph N/A   Overcast
10:53 AM 43.0 °F 35.7 °F 28.0 °F 56% 29.97 in 10.0 mi NW 15.0 mph 20.7 mph N/A   Overcast
11:53 AM 45.0 °F 38.5 °F 28.0 °F 52% 29.98 in 10.0 mi WNW 13.8 mph - N/A   Overcast
12:53 PM 46.9 °F - 28.0 °F 48% 29.98 in 10.0 mi NW 18.4 mph 26.5 mph N/A   Mostly Cloudy
1:53 PM 46.9 °F - 26.1 °F 44% 29.99 in 10.0 mi NW 19.6 mph 28.8 mph N/A   Overcast
2:53 PM 48.9 °F - 27.0 °F 43% 29.99 in 10.0 mi WNW 17.3 mph 32.2 mph N/A   Overcast
3:53 PM 48.9 °F - 28.0 °F 44% 30.00 in 10.0 mi WNW 20.7 mph 29.9 mph N/A   Overcast
4:53 PM 45.0 °F 37.4 °F 27.0 °F 49% 30.02 in 10.0 mi WNW 18.4 mph 31.1 mph N/A   Overcast
5:53 PM 45.0 °F 36.9 °F 26.1 °F 48% 30.04 in 10.0 mi West 20.7 mph 27.6 mph N/A   Overcast
6:53 PM 44.1 °F 36.5 °F 24.1 °F 45% 30.05 in 10.0 mi WNW 17.3 mph 24.2 mph N/A   Overcast
7:53 PM 43.0 °F 35.7 °F 25.0 °F 49% 30.06 in 10.0 mi WNW 15.0 mph 23.0 mph N/A   Overcast
8:53 PM 42.1 °F 36.1 °F 23.0 °F 47% 30.08 in 10.0 mi WNW 10.4 mph 21.9 mph N/A   Overcast
9:53 PM 37.9 °F 33.5 °F 23.0 °F 55% 30.09 in 10.0 mi WNW 5.8 mph - N/A   Clear
10:53 PM 35.1 °F 31.0 °F 25.0 °F 67% 30.11 in 10.0 mi WNW 4.6 mph - N/A   Partly Cloudy
11:53 PM 30.9 °F 26.2 °F 25.0 °F 79% 30.11 in 10.0 mi West 4.6 mph - N/A   Clear